RH
64 61 62 63 64 64 59 61 61 60 58 58 58 60 58 61 65 57 60 48 44 55 51 54 61 64 51 74 79 85 95 90 71 65 65 50 52 39 33 42 41 52 74 66 86
62 62 63 61 61 61 61 62 62 62 61 59 60 56 56 61 64 58 50 50 48 51 41 49 75 69 59 68 83 90 95 83 60 52 60 58 68 44 44 37 53 94 89 89 94
62 61 62 62 62 62 62 62 62 62 61 60 60 59 58 58 73 60 48 53 56 54 37 38 68 58 75 70 78 85 89 65 54 52 60 53 80 73 56 46 44 95 95 93 98
62 62 62 62 62 63 63 64 64 63 62 61 60 58 58 68 87 46 43 40 42 37 40 43 56 66 70 77 58 85 69 65 66 62 71 75 76 79 71 57 37 90 94 96 97
62 62 62 63 63 64 65 65 65 64 62 62 61 58 67 80 75 44 40 38 40 43 45 51 60 54 71 62 64 74 60 56 59 63 57 74 78 82 74 66 48 62 90 96 91
63 63 63 65 65 66 66 66 65 63 62 62 58 58 80 96 44 33 35 42 44 52 60 55 54 50 61 68 68 56 53 45 45 50 59 63 73 80 68 60 64 44 92 95 87
63 64 64 64 67 67 67 65 65 64 64 59 53 51 68 77 40 32 33 38 38 44 57 60 58 60 66 68 59 59 64 58 49 51 63 63 74 78 71 78 84 63 92 94 91
64 66 67 68 68 68 67 66 65 66 63 54 52 58 71 37 37 34 30 32 38 38 43 50 54 66 77 71 66 71 70 84 57 50 52 84 86 58 52 80 84 74 94 92 92
65 67 68 69 70 68 67 68 67 62 49 47 62 59 66 36 32 29 34 34 35 47 57 45 62 84 79 91 84 69 96 78 62 48 58 76 85 61 61 76 85 79 86 95 96
67 68 69 70 70 68 69 64 52 48 37 27 36 58 43 35 36 33 32 31 40 45 69 75 87 88 85 97 89 86 77 84 65 52 51 91 86 66 66 77 78 93 90 90 92
68 69 70 70 70 70 76 59 69 67 70 77 64 53 37 29 33 37 33 36 42 55 76 90 98 93 91 86 77 88 82 89 75 46 53 60 80 70 67 74 87 94 92 88 96
68 69 70 70 71 72 73 67 74 74 83 60 51 47 30 36 43 32 33 50 59 74 71 91 97 69 67 71 81 84 76 78 71 56 49 50 78 66 76 76 70 88 86 88 97
68 69 72 72 73 68 62 66 61 64 87 67 43 30 33 38 44 40 40 53 67 74 73 84 61 44 54 81 90 89 79 72 74 66 58 51 71 79 79 78 71 85 78 90 95
66 67 72 76 69 74 65 59 63 66 96 39 32 34 29 32 46 42 48 56 76 82 71 72 54 53 52 56 76 95 72 73 77 85 97 58 93 77 76 76 77 83 92 90 91
64 65 69 72 89 78 62 63 61 74 88 29 32 23 30 38 36 54 51 64 87 83 69 74 64 67 72 45 60 78 82 85 84 90 98 85 89 68 65 77 75 72 85 85 90
65 66 69 67 78 64 58 68 75 93 79 50 37 41 45 39 37 42 63 71 77 83 78 78 61 66 63 49 39 64 86 90 97 100 99 92 85 82 82 68 69 66 74 77 88
67 69 75 63 68 59 68 86 92 87 46 54 53 47 47 50 45 41 90 94 96 92 82 71 69 64 50 64 54 93 94 98 98 98 97 84 94 68 58 58 59 64 62 79 93
74 76 70 52 58 65 81 88 88 69 60 44 49 49 54 50 54 46 71 97 94 95 98 100 87 80 53 61 66 90 88 96 92 97 88 90 99 80 49 51 54 56 63 70 93
74 74 66 54 59 73 90 94 87 62 47 54 59 66 69 56 65 70 70 98 99 96 96 97 81 67 53 46 51 73 94 82 97 93 87 91 75 48 45 52 58 61 63 67 90
93 77 62 53 68 83 93 86 74 46 45 59 83 68 79 69 72 79 87 88 92 72 85 93 96 89 92 62 49 62 70 90 95 93 97 88 78 51 52 46 55 56 57 69 90
86 77 60 56 70 87 97 88 56 39 41 58 74 79 70 78 70 79 82 62 65 65 61 92 98 81 82 79 69 87 97 94 87 96 98 93 79 42 49 42 44 47 51 65 88
85 92 66 69 88 99 89 59 40 42 40 48 50 58 67 56 79 83 86 68 52 46 86 93 99 97 79 86 75 74 83 87 93 99 98 97 76 42 50 41 42 58 53 70 82
98 96 80 63 94 98 79 63 57 51 47 52 53 50 49 56 81 64 62 47 51 52 87 96 94 97 86 94 75 84 81 89 94 92 98 97 63 43 56 47 42 44 63 77 87
97 92 92 96 96 91 93 84 74 54 53 50 50 49 61 65 56 68 63 54 49 52 64 80 99 98 97 93 98 99 95 81 95 97 97 93 65 64 62 66 60 55 47 88 84
97 94 78 98 91 90 93 86 74 66 56 55 60 56 67 84 83 86 63 63 54 54 74 92 100 95 82 74 76 84 93 94 97 92 96 66 78 73 73 74 71 64 54 55 80
93 92 93 96 77 91 86 84 76 65 63 65 68 59 61 88 82 85 81 82 81 73 84 94 98 95 93 89 83 97 91 92 94 83 64 69 79 69 73 66 67 67 65 58 61
87 83 90 84 90 88 93 85 73 74 59 50 61 76 76 66 59 62 64 67 70 81 98 98 98 97 97 89 98 93 97 96 94 93 89 91 78 67 75 71 71 68 66 67 59
Wind_Speed
18 19 18 19 20 20 21 22 22 22 22 21 21 21 21 21 20 14 17 14 17 11 12 9 11 10 8 5 7 3 7 11 19 22 4 5 6 6 1 4 4 3 7 11 11
18 18 20 21 21 21 21 21 21 21 22 21 20 20 20 19 13 15 10 10 1 8 7 7 13 11 6 5 5 8 9 9 5 12 5 9 3 7 1 3 5 8 15 12 9
18 20 19 19 21 22 22 22 22 22 22 21 21 19 18 12 6 4 8 7 4 8 9 11 6 9 6 6 4 5 11 12 15 9 4 13 5 9 3 2 5 9 15 16 14
18 19 20 20 21 21 23 23 23 23 22 21 19 18 13 3 4 3 15 6 9 2 7 14 5 7 6 11 9 10 6 11 12 7 4 3 2 7 4 3 2 9 10 6 14
18 19 21 22 23 23 23 24 24 24 22 20 18 13 5 3 8 11 8 3 4 2 1 7 4 5 8 6 9 14 8 11 9 18 12 9 4 7 9 9 12 7 12 12 13
19 20 21 21 23 24 25 25 25 23 20 18 11 9 2 4 7 6 4 4 5 3 2 4 5 8 7 5 6 4 10 14 14 13 7 14 8 6 10 5 10 10 14 14 15
19 20 21 22 23 25 27 27 26 23 20 16 9 3 4 11 4 6 6 5 4 5 5 5 4 6 8 6 10 6 8 10 10 12 7 13 10 13 7 8 15 15 14 12 17
20 20 21 22 23 25 27 27 26 25 21 13 7 4 6 7 1 7 4 7 2 6 4 9 5 4 1 8 6 4 1 7 1 7 11 14 18 17 16 6 13 9 8 12 15
19 21 22 23 23 24 25 29 27 20 10 12 4 4 6 2 5 8 2 4 5 5 8 3 5 1 3 2 4 5 4 8 7 9 4 11 3 7 13 13 13 5 9 10 15
19 21 22 23 23 23 23 28 21 6 11 3 4 1 3 8 6 10 6 5 5 1 6 3 3 1 1 5 9 5 9 5 8 5 10 10 8 4 11 16 18 5 6 7 16
20 21 23 24 23 22 13 6 8 8 8 4 10 5 10 7 5 6 3 5 2 2 3 5 2 4 10 10 5 8 9 7 6 9 8 13 14 10 11 13 15 6 1 7 10
21 22 24 25 23 19 5 5 4 5 9 7 11 8 7 1 5 8 2 4 3 5 4 3 7 11 9 11 7 10 13 13 10 14 9 10 13 14 13 14 19 11 4 4 5
21 23 24 25 20 6 6 4 4 1 3 9 5 2 7 1 5 5 5 4 5 5 6 4 8 8 4 9 5 9 13 13 11 13 6 3 7 11 6 4 8 10 9 5 5
22 23 21 22 6 6 3 7 6 1 3 6 3 3 7 8 1 5 3 2 5 4 7 6 5 5 7 4 8 4 5 9 14 8 3 1 4 9 11 12 13 13 14 10 3
22 23 20 10 3 3 6 6 5 1 7 10 7 5 14 4 6 4 1 3 3 5 4 6 7 6 4 5 10 5 6 3 4 4 5 2 2 7 13 13 14 13 15 16 11
22 21 15 4 2 2 6 5 4 5 4 7 7 11 13 9 6 7 6 6 3 5 3 14 7 4 5 7 4 4 1 5 2 2 5 5 7 4 11 20 13 12 12 14 13
23 18 8 4 4 6 5 3 6 8 8 9 10 15 10 11 9 11 4 6 4 8 10 8 2 1 7 3 1 5 4 0 2 4 3 3 3 11 4 14 16 18 16 14 14
23 15 4 1 5 6 4 7 10 4 5 8 8 13 7 17 7 13 7 4 6 5 2 5 9 7 3 5 5 5 5 4 6 4 3 6 4 8 9 9 11 13 15 16 16
16 3 3 6 5 3 6 8 6 4 8 7 11 6 6 10 6 9 6 2 6 5 5 5 6 3 9 6 5 5 3 2 3 3 4 5 3 9 2 3 9 11 12 17 20
2 3 3 10 4 5 7 3 3 5 6 5 5 4 6 10 8 6 5 2 3 6 2 3 8 3 7 3 6 1 5 2 3 3 2 3 3 2 2 7 10 14 15 13 18
3 5 7 12 5 7 4 3 3 6 8 4 3 4 5 5 3 5 6 5 6 8 7 3 4 7 2 2 6 4 2 2 3 4 3 2 1 2 3 5 5 10 14 15 20
3 5 8 5 7 2 3 7 6 5 6 5 5 5 5 6 4 3 4 4 10 15 4 3 3 5 7 7 8 6 6 3 5 2 0 3 4 5 5 6 8 6 13 17 21
3 1 5 7 5 4 7 6 5 7 6 5 4 4 4 5 5 4 6 8 13 12 1 6 3 6 5 2 5 5 2 5 4 3 2 2 1 7 8 9 11 11 8 15 17
4 5 6 6 1 4 3 5 8 9 4 8 4 5 9 5 0 10 9 8 16 11 10 4 3 5 4 5 1 5 4 2 5 1 3 0 1 12 12 10 11 12 9 6 12
4 1 4 4 5 3 4 3 5 8 3 6 6 10 6 5 8 3 7 11 9 4 6 4 4 2 11 18 16 11 4 5 6 1 2 4 5 10 11 10 10 11 12 11 6
4 4 4 2 3 5 5 5 5 5 3 6 7 10 4 4 7 13 10 1 8 6 6 4 5 5 6 10 4 3 6 6 7 6 12 9 9 6 6 12 17 14 14 13 10
2 3 4 4 3 5 4 5 5 5 6 5 4 5 6 7 12 17 14 13 14 8 3 3 2 4 7 5 2 7 10 5 10 14 5 6 4 7 12 14 14 13 15 14 10
Wind_Direction
351 349 345 340 342 339 337 334 331 330 327 324 316 321 318 324 322 302 285 253 263 299 326 305 280 286 273 240 206 168 228 226 223 230 220 306 203 264 158 91 36 82 124 152 139
349 343 350 345 337 336 332 328 326 325 322 319 317 321 323 325 313 295 292 236 128 351 339 297 264 257 252 218 199 202 224 227 229 238 210 250 306 206 41 83 30 87 109 113 111
345 348 345 343 342 337 331 326 326 323 320 320 320 322 320 330 325 212 48 87 72 355 333 304 244 219 239 230 205 199 238 203 259 258 259 269 314 340 122 254 162 158 146 139 124
347 345 343 342 337 334 330 326 324 322 318 318 320 314 325 309 300 273 315 9 352 2 17 339 300 236 244 231 231 244 230 243 268 288 219 287 358 298 274 219 314 164 153 152 144
346 344 343 340 334 330 329 324 322 319 318 317 314 315 326 279 252 264 316 76 90 41 43 3 317 291 257 270 259 240 241 251 230 256 242 186 236 192 271 278 331 164 163 169 165
348 345 339 336 333 328 328 323 320 319 322 314 313 302 275 263 236 275 10 165 164 127 80 101 351 331 286 258 281 313 225 253 263 271 254 253 230 162 250 350 326 251 174 166 172
345 342 341 337 333 332 327 322 320 318 313 314 326 287 274 255 261 322 318 275 180 190 173 174 162 352 343 304 347 286 279 298 273 255 229 244 268 214 249 4 313 322 166 160 170
347 343 340 338 336 332 325 320 318 312 305 298 280 263 253 263 270 330 354 339 29 287 235 152 148 173 216 315 326 332 231 238 210 253 240 163 243 236 217 176 269 309 229 164 164
344 341 339 337 334 331 327 320 314 309 312 284 272 181 267 336 360 296 276 264 289 54 37 51 86 352 180 83 336 247 260 220 271 230 194 174 241 211 196 164 243 301 328 174 151
343 340 337 335 334 330 333 319 323 352 331 177 254 125 323 323 329 307 282 251 224 239 86 102 28 297 227 174 207 210 223 254 219 230 218 175 208 203 174 171 246 245 299 350 170
343 340 334 333 332 329 341 2 12 351 27 283 283 259 273 297 290 292 271 331 0 140 253 153 202 215 223 218 235 300 298 302 302 249 221 214 201 206 176 174 194 221 345 12 205
342 338 334 330 329 325 358 47 49 248 319 292 259 249 272 257 298 303 118 27 343 305 313 163 234 239 229 217 206 231 258 269 282 269 247 232 205 197 177 193 192 203 9 346 219
343 339 335 330 323 357 93 51 335 307 282 294 254 268 283 232 270 327 44 2 314 322 317 232 253 298 282 270 200 242 222 247 265 327 284 265 237 187 202 141 158 161 199 150 347
344 339 339 337 54 328 59 345 338 51 358 318 325 284 325 315 55 72 34 45 346 327 322 268 288 274 261 185 198 252 225 244 251 271 238 90 265 204 187 194 181 168 176 211 122
343 339 340 340 260 15 303 335 333 14 59 321 356 325 323 337 304 5 4 54 323 306 317 268 317 359 352 217 172 200 88 48 297 210 275 224 99 272 184 205 194 191 182 194 147
339 337 341 351 6 291 324 332 45 43 298 357 326 339 341 346 9 21 37 31 282 301 241 261 251 281 224 324 263 132 69 55 63 190 250 194 147 274 197 203 196 191 168 178 156
334 333 325 313 313 314 338 45 39 82 329 344 328 330 332 351 359 1 36 19 39 9 348 316 276 250 196 289 130 91 106 142 208 167 167 247 94 250 313 200 197 186 176 175 153
330 324 308 33 321 359 37 49 63 296 5 314 320 322 25 14 342 346 10 15 43 39 353 8 332 8 342 199 175 163 164 167 174 167 153 119 229 258 230 225 216 190 162 159 166
334 358 36 314 332 60 64 46 187 355 344 318 325 14 340 4 335 8 354 19 48 25 42 329 282 253 286 205 155 246 185 135 84 290 84 207 287 303 279 171 179 177 169 178 174
6 15 0 315 342 59 66 103 23 4 330 359 11 15 335 335 17 26 347 2 357 45 161 269 289 16 333 247 216 213 179 73 8 79 164 278 173 167 245 238 179 190 181 174 172
45 47 315 331 50 46 102 243 350 347 14 332 300 308 348 343 304 312 269 314 44 328 317 203 253 295 302 250 170 101 230 356 119 132 127 118 225 360 317 340 287 198 178 159 171
30 46 309 12 47 35 23 318 349 340 347 341 337 11 14 352 313 305 301 255 31 0 340 322 265 277 249 303 298 154 160 143 117 229 60 62 300 328 3 340 23 70 176 157 161
71 318 329 57 68 338 328 352 333 14 336 15 305 14 6 22 344 289 328 314 2 343 338 330 313 315 348 143 351 55 184 148 75 21 83 297 224 357 16 26 26 32 39 155 143
73 32 337 35 112 117 22 333 338 342 339 340 301 18 6 329 80 293 293 309 334 327 26 5 267 248 263 287 209 290 329 188 156 140 133 258 46 10 12 22 24 27 26 75 143
42 251 177 340 338 54 81 330 358 352 1 326 342 10 352 308 314 248 333 329 305 331 12 93 277 240 266 271 260 247 197 164 152 356 139 131 60 22 12 14 10 38 36 47 52
96 67 353 247 313 58 356 302 319 340 278 305 330 316 300 233 231 294 317 31 249 317 352 337 280 318 294 357 161 182 174 117 64 78 96 89 76 26 12 26 26 30 35 36 18
341 18 101 284 347 69 252 253 294 339 293 284 315 318 288 261 284 276 265 254 247 276 306 275 280 342 275 342 304 54 343 106 87 45 353 66 15 41 35 31 13 9 38 23 358